| time (UTC) | temp F | wind direction | speed MPH | gust MPH | rain 1hr in | rain 24hr in | rain mn in | humidity % | barometer mb |
| 20260905201733 | 71 | 99 | 9.0 | 11.0 | 0.00 | 0.00 | 0.00 | 36 | 1033.5 |
| 20260905201228 | 69 | 210 | 2.0 | 2.0 | 0.00 | 0.00 | 0.00 | 40 | 1033.2 |
| 20260905200723 | 69 | 5 | 2.0 | 10.0 | 0.00 | 0.00 | 0.00 | 39 | 1033.2 |
| 20260905200219 | 69 | 345 | 4.0 | 10.0 | 0.00 | 0.00 | 0.00 | 39 | 1033.2 |
| 20260905195717 | 69 | 300 | 5.0 | 9.0 | 0.00 | 0.00 | 0.00 | 39 | 1033.3 |
| 20260905195213 | 69 | 292 | 7.0 | 9.0 | 0.00 | 0.00 | 0.00 | 39 | 1033.3 |
| 20260905194708 | 69 | 37 | 7.0 | 8.0 | 0.00 | 0.00 | 0.00 | 39 | 1033.5 |
| 20260905194207 | 70 | 272 | 1.0 | 6.0 | 0.00 | 0.00 | 0.00 | 39 | 1033.5 |
| 20260905193701 | 70 | 286 | 4.0 | 7.0 | 0.00 | 0.00 | 0.00 | 38 | 1033.3 |
| 20260905193156 | 71 | 84 | 4.0 | 10.0 | 0.00 | 0.00 | 0.00 | 37 | 1033.6 |
| 20260905192652 | 74 | 119 | 2.0 | 7.0 | 0.00 | 0.00 | 0.00 | 36 | 1033.3 |
| 20260905192149 | 73 | 107 | 3.0 | 7.0 | 0.00 | 0.00 | 0.00 | 35 | 1033.3 |
| 20260905191648 | 71 | 323 | 1.0 | 3.0 | 0.00 | 0.00 | 0.00 | 37 | 1033.5 |
| 20260905191146 | 72 | 212 | 1.0 | 4.0 | 0.00 | 0.00 | 0.00 | 37 | 1033.6 |
| 20260905190644 | 70 | 10 | 6.0 | 8.0 | 0.00 | 0.00 | 0.00 | 39 | 1033.6 |
| 20260905190144 | 71 | 316 | 3.0 | 3.0 | 0.00 | 0.00 | 0.00 | 37 | 1033.5 |
| 20260905185637 | 72 | 25 | 11.0 | 13.0 | 0.00 | 0.00 | 0.00 | 37 | 1033.5 |
| 20260905185132 | 72 | 359 | 4.0 | 4.0 | 0.00 | 0.00 | 0.00 | 36 | 1033.6 |
| 20260905184632 | 73 | 84 | 2.0 | 11.0 | 0.00 | 0.00 | 0.00 | 34 | 1033.6 |
| 20260905184131 | 73 | 71 | 5.0 | 9.0 | 0.00 | 0.00 | 0.00 | 34 | 1033.5 |
| 20260905183630 | 71 | 0 | 0.0 | 7.0 | 0.00 | 0.00 | 0.00 | 37 | 1033.6 |
| 20260905183126 | 70 | 307 | 3.0 | 8.0 | 0.00 | 0.00 | 0.00 | 37 | 1033.7 |
| 20260905182625 | 71 | 304 | 2.0 | 8.0 | 0.00 | 0.00 | 0.00 | 36 | 1033.5 |
| 20260905182119 | 72 | 115 | 3.0 | 4.0 | 0.00 | 0.00 | 0.00 | 35 | 1033.7 |
| 20260905181614 | 73 | 315 | 3.0 | 4.0 | 0.00 | 0.00 | 0.00 | 35 | 1033.6 |
| 20260905181113 | 74 | 275 | 2.0 | 3.0 | 0.00 | 0.00 | 0.00 | 35 | 1033.6 |
| 20260905180609 | 72 | 120 | 8.0 | 11.0 | 0.00 | 0.00 | 0.00 | 36 | 1033.7 |
| 20260905180104 | 73 | 42 | 4.0 | 7.0 | 0.00 | 0.00 | 0.00 | 37 | 1033.7 |
| 20260905175603 | 72 | 162 | 5.0 | 9.0 | 0.00 | 0.00 | 0.00 | 36 | 1033.9 |
| 20260905175058 | 74 | 51 | 8.0 | 11.0 | 0.00 | 0.00 | 0.00 | 34 | 1033.6 |
| 20260905174554 | 72 | 96 | 8.0 | 10.0 | 0.00 | 0.00 | 0.00 | 36 | 1033.9 |
| 20260905174049 | 72 | 297 | 4.0 | 10.0 | 0.00 | 0.00 | 0.00 | 36 | 1033.9 |
| 20260905173546 | 74 | 90 | 6.0 | 8.0 | 0.00 | 0.00 | 0.00 | 36 | 1033.9 |
| 20260905173041 | 73 | 279 | 2.0 | 6.0 | 0.00 | 0.00 | 0.00 | 35 | 1033.7 |
| 20260905172539 | 75 | 71 | 2.0 | 7.0 | 0.00 | 0.00 | 0.00 | 35 | 1033.9 |
| 20260905172035 | 74 | 150 | 8.0 | 9.0 | 0.00 | 0.00 | 0.00 | 34 | 1033.9 |
| 20260905171531 | 75 | 314 | 4.0 | 7.0 | 0.00 | 0.00 | 0.00 | 34 | 1033.6 |
| 20260905171027 | 75 | 252 | 0.0 | 1.0 | 0.00 | 0.00 | 0.00 | 33 | 1033.9 |
| 20260905170523 | 72 | 282 | 2.0 | 4.0 | 0.00 | 0.00 | 0.00 | 35 | 1033.6 |
| 20260905170018 | 71 | 8 | 2.0 | 4.0 | 0.00 | 0.00 | 0.00 | 36 | 1033.6 |
| 20260905165513 | 70 | 305 | 2.0 | 2.0 | 0.00 | 0.00 | 0.00 | 35 | 1033.9 |
| 20260905165008 | 69 | 271 | 2.0 | 4.0 | 0.00 | 0.00 | 0.00 | 36 | 1033.6 |
| 20260905164502 | 69 | 265 | 1.0 | 3.0 | 0.00 | 0.00 | 0.00 | 36 | 1034.0 |
| 20260905163956 | 69 | 270 | 2.0 | 4.0 | 0.00 | 0.00 | 0.00 | 37 | 1033.7 |
| 20260905163453 | 70 | 338 | 1.0 | 4.0 | 0.00 | 0.00 | 0.00 | 38 | 1033.5 |
| 20260905162949 | 70 | 276 | 2.0 | 4.0 | 0.00 | 0.00 | 0.00 | 36 | 1033.9 |
| 20260905162444 | 72 | 88 | 5.0 | 10.0 | 0.00 | 0.00 | 0.00 | 35 | 1033.7 |
| 20260905161939 | 70 | 7 | 4.0 | 7.0 | 0.00 | 0.00 | 0.00 | 36 | 1033.6 |
| 20260905161438 | 71 | 271 | 3.0 | 8.0 | 0.00 | 0.00 | 0.00 | 37 | 1033.6 |
| 20260905160936 | 71 | 14 | 2.0 | 7.0 | 0.00 | 0.00 | 0.00 | 36 | 1033.5 |
| 20260905160430 | 71 | 299 | 2.0 | 4.0 | 0.00 | 0.00 | 0.00 | 36 | 1033.5 |
| 20260905155930 | 70 | 293 | 4.0 | 7.0 | 0.00 | 0.00 | 0.00 | 36 | 1033.5 |
| 20260905155425 | 71 | 305 | 3.0 | 4.0 | 0.00 | 0.00 | 0.00 | 35 | 1033.6 |
| 20260905154923 | 70 | 247 | 2.0 | 3.0 | 0.00 | 0.00 | 0.00 | 36 | 1033.6 |
| 20260905154419 | 70 | 294 | 3.0 | 4.0 | 0.00 | 0.00 | 0.00 | 35 | 1033.5 |
| 20260905153915 | 71 | 234 | 2.0 | 4.0 | 0.00 | 0.00 | 0.00 | 34 | 1033.5 |
| 20260905153411 | 70 | 303 | 2.0 | 8.0 | 0.00 | 0.00 | 0.00 | 37 | 1033.5 |
| 20260905152910 | 69 | 203 | 2.0 | 4.0 | 0.00 | 0.00 | 0.00 | 37 | 1033.5 |
| 20260905152409 | 68 | 269 | 5.0 | 7.0 | 0.00 | 0.00 | 0.00 | 37 | 1033.5 |
| 20260905151905 | 68 | 291 | 1.0 | 7.0 | 0.00 | 0.00 | 0.00 | 38 | 1033.3 |
| 20260905151400 | 68 | 234 | 4.0 | 6.0 | 0.00 | 0.00 | 0.00 | 38 | 1033.5 |
| 20260905150855 | 67 | 251 | 2.0 | 7.0 | 0.00 | 0.00 | 0.00 | 40 | 1033.5 |
| 20260905150354 | 68 | 340 | 4.0 | 8.0 | 0.00 | 0.00 | 0.00 | 39 | 1033.3 |
| 20260905145851 | 68 | 275 | 1.0 | 4.0 | 0.00 | 0.00 | 0.00 | 39 | 1033.2 |
| 20260905145346 | 67 | 325 | 2.0 | 6.0 | 0.00 | 0.00 | 0.00 | 40 | 1033.5 |
| 20260905144845 | 67 | 303 | 4.0 | 7.0 | 0.00 | 0.00 | 0.00 | 40 | 1033.5 |
| 20260905144341 | 66 | 269 | 6.0 | 9.0 | 0.00 | 0.00 | 0.00 | 40 | 1033.5 |
| 20260905143839 | 66 | 233 | 7.0 | 10.0 | 0.00 | 0.00 | 0.00 | 41 | 1033.5 |
| 20260905143328 | 67 | 256 | 0.0 | 2.0 | 0.00 | 0.00 | 0.00 | 40 | 1033.3 |
| 20260905142827 | 66 | 251 | 0.0 | 3.0 | 0.00 | 0.00 | 0.00 | 41 | 1033.5 |
| 20260905142321 | 66 | 291 | 2.0 | 2.0 | 0.00 | 0.00 | 0.00 | 41 | 1033.3 |
| 20260905141818 | 65 | 247 | 2.0 | 4.0 | 0.00 | 0.00 | 0.00 | 42 | 1033.5 |
| 20260905141313 | 65 | 246 | 4.0 | 4.0 | 0.00 | 0.00 | 0.00 | 42 | 1033.3 |
| 20260905140808 | 64 | 217 | 5.0 | 7.0 | 0.00 | 0.00 | 0.00 | 42 | 1033.6 |
| 20260905140302 | 64 | 173 | 2.0 | 4.0 | 0.00 | 0.00 | 0.00 | 43 | 1033.2 |
| 20260905135801 | 63 | 304 | 7.0 | 10.0 | 0.00 | 0.00 | 0.00 | 43 | 1033.1 |
| 20260905135258 | 63 | 296 | 6.0 | 9.0 | 0.00 | 0.00 | 0.00 | 43 | 1033.1 |
| 20260905134757 | 63 | 236 | 4.0 | 6.0 | 0.00 | 0.00 | 0.00 | 43 | 1032.9 |
| 20260905134251 | 63 | 218 | 6.0 | 8.0 | 0.00 | 0.00 | 0.00 | 44 | 1032.8 |
| 20260905133745 | 62 | 244 | 2.0 | 8.0 | 0.00 | 0.00 | 0.00 | 44 | 1032.9 |
| 20260905133241 | 62 | 203 | 3.0 | 7.0 | 0.00 | 0.00 | 0.00 | 45 | 1033.1 |
| 20260905132740 | 62 | 240 | 1.0 | 6.0 | 0.00 | 0.00 | 0.00 | 45 | 1032.8 |
| 20260905132236 | 62 | 252 | 2.0 | 10.0 | 0.00 | 0.00 | 0.00 | 44 | 1032.7 |
| 20260905131730 | 62 | 240 | 1.0 | 3.0 | 0.00 | 0.00 | 0.00 | 46 | 1032.8 |
| 20260905131225 | 60 | 223 | 4.0 | 7.0 | 0.00 | 0.00 | 0.00 | 44 | 1032.9 |
| 20260905130720 | 59 | 172 | 2.0 | 4.0 | 0.00 | 0.00 | 0.00 | 46 | 1032.7 |
| 20260905130219 | 56 | 225 | 2.0 | 2.0 | 0.00 | 0.00 | 0.00 | 52 | 1032.8 |
| 20260905125715 | 56 | 204 | 3.0 | 3.0 | 0.00 | 0.00 | 0.00 | 51 | 1032.7 |
| 20260905125210 | 56 | 200 | 3.0 | 3.0 | 0.00 | 0.00 | 0.00 | 52 | 1032.8 |
| 20260905124706 | 57 | 202 | 3.0 | 3.0 | 0.00 | 0.00 | 0.00 | 50 | 1032.5 |
| 20260905124202 | 60 | 196 | 2.0 | 4.0 | 0.00 | 0.00 | 0.00 | 47 | 1032.5 |
| 20260905123656 | 60 | 213 | 4.0 | 7.0 | 0.00 | 0.00 | 0.00 | 46 | 1032.3 |
| 20260905123154 | 59 | 211 | 2.0 | 6.0 | 0.00 | 0.00 | 0.00 | 47 | 1032.3 |
| 20260905122653 | 59 | 222 | 3.0 | 3.0 | 0.00 | 0.00 | 0.00 | 49 | 1032.3 |
| 20260905122148 | 59 | 200 | 2.0 | 4.0 | 0.00 | 0.00 | 0.00 | 50 | 1032.3 |
| 20260905121643 | 57 | 211 | 3.0 | 6.0 | 0.00 | 0.00 | 0.00 | 50 | 1032.3 |
| 20260905121138 | 56 | 216 | 2.0 | 2.0 | 0.00 | 0.00 | 0.00 | 54 | 1032.3 |
| 20260905120637 | 57 | 208 | 4.0 | 4.0 | 0.00 | 0.00 | 0.00 | 51 | 1032.4 |
| 20260905120132 | 56 | 213 | 3.0 | 4.0 | 0.00 | 0.00 | 0.00 | 54 | 1032.3 |
| 20260905115632 | 57 | 213 | 3.0 | 3.0 | 0.00 | 0.00 | 0.00 | 54 | 1032.1 |
| 20260905115127 | 58 | 219 | 2.0 | 4.0 | 0.00 | 0.00 | 0.00 | 52 | 1032.0 |
| 20260905114627 | 59 | 213 | 3.0 | 4.0 | 0.00 | 0.00 | 0.00 | 50 | 1032.3 |
| 20260905114125 | 59 | 233 | 4.0 | 4.0 | 0.00 | 0.00 | 0.00 | 49 | 1032.3 |
| 20260905113620 | 57 | 228 | 3.0 | 3.0 | 0.00 | 0.00 | 0.00 | 53 | 1032.3 |
| 20260905113115 | 58 | 231 | 3.0 | 4.0 | 0.00 | 0.00 | 0.00 | 52 | 1032.3 |
| 20260905112610 | 57 | 210 | 3.0 | 4.0 | 0.00 | 0.00 | 0.00 | 54 | 1032.1 |
| 20260905112106 | 57 | 205 | 2.0 | 3.0 | 0.00 | 0.00 | 0.00 | 55 | 1032.3 |
| 20260905111606 | 57 | 210 | 4.0 | 4.0 | 0.00 | 0.00 | 0.00 | 54 | 1032.3 |
| 20260905111105 | 56 | 236 | 2.0 | 3.0 | 0.00 | 0.00 | 0.00 | 55 | 1032.4 |
| 20260905110604 | 57 | 208 | 3.0 | 4.0 | 0.00 | 0.00 | 0.00 | 55 | 1032.3 |
| 20260905110059 | 57 | 207 | 3.0 | 3.0 | 0.00 | 0.00 | 0.00 | 56 | 1032.3 |
| 20260905105554 | 57 | 206 | 4.0 | 4.0 | 0.00 | 0.00 | 0.00 | 55 | 1032.3 |
| 20260905105053 | 57 | 218 | 3.0 | 4.0 | 0.00 | 0.00 | 0.00 | 57 | 1032.4 |
| 20260905104549 | 56 | 206 | 3.0 | 3.0 | 0.00 | 0.00 | 0.00 | 57 | 1032.1 |
| 20260905104048 | 57 | 211 | 3.0 | 3.0 | 0.00 | 0.00 | 0.00 | 57 | 1032.0 |
| 20260905103545 | 56 | 203 | 4.0 | 4.0 | 0.00 | 0.00 | 0.00 | 56 | 1032.0 |
| 20260905103041 | 56 | 216 | 3.0 | 3.0 | 0.00 | 0.00 | 0.00 | 56 | 1032.3 |
| 20260905102536 | 56 | 207 | 3.0 | 3.0 | 0.00 | 0.00 | 0.00 | 57 | 1032.1 |
| 20260905102033 | 56 | 197 | 3.0 | 4.0 | 0.00 | 0.00 | 0.00 | 56 | 1032.1 |
| 20260905101531 | 56 | 201 | 3.0 | 4.0 | 0.00 | 0.00 | 0.00 | 58 | 1031.9 |
| 20260905101029 | 56 | 208 | 3.0 | 4.0 | 0.00 | 0.00 | 0.00 | 57 | 1032.0 |
| 20260905100526 | 56 | 206 | 3.0 | 4.0 | 0.00 | 0.00 | 0.00 | 57 | 1032.1 |
| 20260905100025 | 55 | 207 | 3.0 | 3.0 | 0.00 | 0.00 | 0.00 | 58 | 1032.0 |
| 20260905095520 | 55 | 204 | 3.0 | 4.0 | 0.00 | 0.00 | 0.00 | 58 | 1032.3 |
| 20260905095015 | 55 | 207 | 3.0 | 4.0 | 0.00 | 0.00 | 0.00 | 60 | 1032.0 |
| 20260905094510 | 55 | 201 | 3.0 | 4.0 | 0.00 | 0.00 | 0.00 | 60 | 1032.0 |
| 20260905094009 | 55 | 209 | 3.0 | 3.0 | 0.00 | 0.00 | 0.00 | 60 | 1032.0 |
| 20260905093504 | 55 | 206 | 3.0 | 3.0 | 0.00 | 0.00 | 0.00 | 61 | 1031.9 |
| 20260905093000 | 55 | 202 | 3.0 | 3.0 | 0.00 | 0.00 | 0.00 | 60 | 1031.9 |
| 20260905092455 | 55 | 199 | 3.0 | 3.0 | 0.00 | 0.00 | 0.00 | 59 | 1031.9 |
| 20260905091951 | 55 | 199 | 3.0 | 3.0 | 0.00 | 0.00 | 0.00 | 60 | 1032.0 |
| 20260905091445 | 55 | 201 | 3.0 | 3.0 | 0.00 | 0.00 | 0.00 | 60 | 1031.8 |
| 20260905090945 | 55 | 205 | 3.0 | 3.0 | 0.00 | 0.00 | 0.00 | 59 | 1031.9 |
| 20260905090440 | 55 | 206 | 3.0 | 3.0 | 0.00 | 0.00 | 0.00 | 59 | 1032.0 |
| 20260905085939 | 55 | 205 | 3.0 | 3.0 | 0.00 | 0.00 | 0.00 | 60 | 1032.0 |
| 20260905085438 | 55 | 199 | 3.0 | 3.0 | 0.00 | 0.00 | 0.00 | 59 | 1032.1 |
| 20260905084934 | 55 | 197 | 3.0 | 3.0 | 0.00 | 0.00 | 0.00 | 59 | 1032.0 |
| 20260905084434 | 55 | 204 | 3.0 | 3.0 | 0.00 | 0.00 | 0.00 | 59 | 1031.8 |
| 20260905083928 | 55 | 201 | 3.0 | 3.0 | 0.00 | 0.00 | 0.00 | 59 | 1031.8 |
| 20260905083424 | 55 | 212 | 2.0 | 3.0 | 0.00 | 0.00 | 0.00 | 59 | 1031.8 |
| 20260905082920 | 55 | 207 | 2.0 | 3.0 | 0.00 | 0.00 | 0.00 | 59 | 1032.0 |
| 20260905082416 | 55 | 209 | 3.0 | 3.0 | 0.00 | 0.00 | 0.00 | 58 | 1031.9 |
| 20260905081915 | 55 | 205 | 3.0 | 3.0 | 0.00 | 0.00 | 0.00 | 59 | 1032.1 |
| 20260905081410 | 55 | 205 | 3.0 | 3.0 | 0.00 | 0.00 | 0.00 | 58 | 1031.9 |
| 20260905080910 | 56 | 208 | 3.0 | 3.0 | 0.00 | 0.00 | 0.00 | 58 | 1031.9 |
| 20260905080409 | 56 | 210 | 3.0 | 3.0 | 0.00 | 0.00 | 0.00 | 57 | 1032.0 |
| 20260905075908 | 56 | 201 | 3.0 | 3.0 | 0.00 | 0.00 | 0.00 | 57 | 1031.9 |
| 20260905075403 | 56 | 207 | 3.0 | 4.0 | 0.00 | 0.00 | 0.00 | 56 | 1032.0 |
| 20260905074902 | 56 | 210 | 3.0 | 4.0 | 0.00 | 0.00 | 0.00 | 56 | 1032.1 |
| 20260905074358 | 56 | 206 | 3.0 | 3.0 | 0.00 | 0.00 | 0.00 | 57 | 1032.1 |
| 20260905073854 | 56 | 203 | 3.0 | 3.0 | 0.00 | 0.00 | 0.00 | 56 | 1031.9 |
| 20260905073348 | 56 | 206 | 3.0 | 3.0 | 0.00 | 0.00 | 0.00 | 56 | 1032.0 |
| 20260905072843 | 57 | 205 | 3.0 | 4.0 | 0.00 | 0.00 | 0.00 | 56 | 1032.0 |
| 20260905072338 | 57 | 200 | 3.0 | 4.0 | 0.00 | 0.00 | 0.00 | 56 | 1032.3 |
| 20260905071835 | 57 | 201 | 3.0 | 4.0 | 0.00 | 0.00 | 0.00 | 56 | 1032.0 |
| 20260905071331 | 57 | 207 | 3.0 | 4.0 | 0.00 | 0.00 | 0.00 | 55 | 1031.9 |
| 20260905070825 | 56 | 206 | 3.0 | 3.0 | 0.00 | 0.00 | 0.00 | 57 | 1032.0 |
| 20260905070322 | 57 | 204 | 3.0 | 3.0 | 0.00 | 0.00 | 0.00 | 56 | 1032.0 |
| 20260905065820 | 57 | 205 | 3.0 | 3.0 | 0.00 | 0.00 | 0.00 | 56 | 1032.0 |
| 20260905065319 | 57 | 210 | 3.0 | 3.0 | 0.00 | 0.00 | 0.00 | 55 | 1031.9 |
| 20260905064814 | 57 | 205 | 3.0 | 3.0 | 0.00 | 0.00 | 0.00 | 55 | 1032.0 |
| 20260905064310 | 58 | 206 | 2.0 | 4.0 | 0.00 | 0.00 | 0.00 | 54 | 1032.0 |
| 20260905063808 | 58 | 212 | 3.0 | 3.0 | 0.00 | 0.00 | 0.00 | 53 | 1032.1 |
| 20260905063259 | 58 | 201 | 3.0 | 3.0 | 0.00 | 0.00 | 0.00 | 54 | 1032.0 |
| 20260905062754 | 58 | 205 | 2.0 | 3.0 | 0.00 | 0.00 | 0.00 | 54 | 1031.8 |
| 20260905062249 | 58 | 201 | 2.0 | 4.0 | 0.00 | 0.00 | 0.00 | 53 | 1032.0 |
| 20260905061743 | 59 | 225 | 2.0 | 3.0 | 0.00 | 0.00 | 0.00 | 52 | 1031.8 |
| 20260905061238 | 60 | 222 | 3.0 | 4.0 | 0.00 | 0.00 | 0.00 | 50 | 1031.9 |
| 20260905060732 | 60 | 205 | 3.0 | 4.0 | 0.00 | 0.00 | 0.00 | 50 | 1031.9 |
| 20260905060230 | 60 | 213 | 3.0 | 4.0 | 0.00 | 0.00 | 0.00 | 50 | 1032.0 |
| 20260905055727 | 59 | 210 | 3.0 | 3.0 | 0.00 | 0.00 | 0.00 | 52 | 1031.9 |
| 20260905055223 | 60 | 214 | 2.0 | 3.0 | 0.00 | 0.00 | 0.00 | 51 | 1031.8 |
| 20260905054718 | 60 | 212 | 4.0 | 4.0 | 0.00 | 0.00 | 0.00 | 51 | 1031.9 |
| 20260905054215 | 60 | 211 | 3.0 | 4.0 | 0.00 | 0.00 | 0.00 | 50 | 1031.8 |
| 20260905053713 | 59 | 230 | 3.0 | 3.0 | 0.00 | 0.00 | 0.00 | 51 | 1031.8 |
| 20260905053208 | 60 | 227 | 2.0 | 4.0 | 0.00 | 0.00 | 0.00 | 50 | 1032.0 |
| 20260905052703 | 59 | 232 | 2.0 | 2.0 | 0.00 | 0.00 | 0.00 | 51 | 1031.9 |
| 20260905052158 | 59 | 219 | 2.0 | 3.0 | 0.00 | 0.00 | 0.00 | 53 | 1031.9 |
| 20260905051658 | 60 | 217 | 2.0 | 3.0 | 0.00 | 0.00 | 0.00 | 52 | 1031.9 |
| 20260905051155 | 60 | 238 | 1.0 | 2.0 | 0.00 | 0.00 | 0.00 | 50 | 1031.9 |
| 20260905050651 | 61 | 208 | 2.0 | 4.0 | 0.00 | 0.00 | 0.00 | 49 | 1031.9 |
| 20260905050147 | 60 | 237 | 2.0 | 3.0 | 0.00 | 0.00 | 0.00 | 49 | 1031.8 |
| 20260905045646 | 60 | 224 | 2.0 | 3.0 | 0.00 | 0.00 | 0.00 | 51 | 1031.9 |
| 20260905045143 | 60 | 184 | 3.0 | 3.0 | 0.00 | 0.00 | 0.00 | 51 | 1032.0 |
| 20260905044642 | 60 | 217 | 2.0 | 3.0 | 0.00 | 0.00 | 0.00 | 51 | 1031.9 |
| 20260905044137 | 60 | 212 | 3.0 | 4.0 | 0.00 | 0.00 | 0.00 | 49 | 1031.9 |
| 20260905043636 | 59 | 214 | 2.0 | 3.0 | 0.00 | 0.00 | 0.00 | 51 | 1031.9 |
| 20260905043131 | 60 | 203 | 3.0 | 3.0 | 0.00 | 0.00 | 0.00 | 51 | 1031.8 |
| 20260905042630 | 60 | 214 | 2.0 | 3.0 | 0.00 | 0.00 | 0.00 | 51 | 1031.9 |
| 20260905042125 | 60 | 214 | 3.0 | 3.0 | 0.00 | 0.00 | 0.00 | 51 | 1032.0 |
| 20260905041621 | 61 | 208 | 3.0 | 3.0 | 0.00 | 0.00 | 0.00 | 50 | 1031.9 |
| 20260905041117 | 60 | 208 | 3.0 | 3.0 | 0.00 | 0.00 | 0.00 | 51 | 1032.0 |
| 20260905040616 | 60 | 211 | 3.0 | 3.0 | 0.00 | 0.00 | 0.00 | 52 | 1032.0 |
| 20260905040115 | 60 | 225 | 2.0 | 2.0 | 0.00 | 0.00 | 0.00 | 52 | 1032.3 |
| 20260905035610 | 60 | 234 | 2.0 | 2.0 | 0.00 | 0.00 | 0.00 | 52 | 1032.1 |
| 20260905035107 | 61 | 214 | 3.0 | 3.0 | 0.00 | 0.00 | 0.00 | 52 | 1032.1 |
| 20260905034603 | 61 | 257 | 0.0 | 1.0 | 0.00 | 0.00 | 0.00 | 52 | 1032.1 |
| 20260905034102 | 62 | 237 | 1.0 | 3.0 | 0.00 | 0.00 | 0.00 | 51 | 1032.1 |
| 20260905033556 | 61 | 224 | 2.0 | 3.0 | 0.00 | 0.00 | 0.00 | 51 | 1032.0 |
| 20260905033052 | 62 | 244 | 2.0 | 3.0 | 0.00 | 0.00 | 0.00 | 50 | 1032.0 |
| 20260905032552 | 63 | 270 | 1.0 | 4.0 | 0.00 | 0.00 | 0.00 | 49 | 1032.1 |
| 20260905032047 | 63 | 253 | 3.0 | 3.0 | 0.00 | 0.00 | 0.00 | 49 | 1032.0 |
| 20260905031543 | 64 | 220 | 2.0 | 2.0 | 0.00 | 0.00 | 0.00 | 47 | 1032.3 |
| 20260905031042 | 64 | 259 | 2.0 | 4.0 | 0.00 | 0.00 | 0.00 | 46 | 1032.0 |
| 20260905030538 | 64 | 225 | 3.0 | 3.0 | 0.00 | 0.00 | 0.00 | 46 | 1032.1 |
| 20260905030038 | 64 | 246 | 2.0 | 4.0 | 0.00 | 0.00 | 0.00 | 46 | 1032.3 |
| 20260905025533 | 64 | 236 | 1.0 | 2.0 | 0.00 | 0.00 | 0.00 | 46 | 1032.1 |
| 20260905025029 | 64 | 240 | 1.0 | 2.0 | 0.00 | 0.00 | 0.00 | 46 | 1032.3 |
| 20260905024524 | 64 | 231 | 2.0 | 3.0 | 0.00 | 0.00 | 0.00 | 46 | 1032.0 |
| 20260905024019 | 64 | 242 | 1.0 | 4.0 | 0.00 | 0.00 | 0.00 | 46 | 1031.9 |
| 20260905023514 | 64 | 250 | 1.0 | 2.0 | 0.00 | 0.00 | 0.00 | 45 | 1031.9 |
| 20260905023009 | 64 | 284 | 0.0 | 4.0 | 0.00 | 0.00 | 0.00 | 44 | 1031.6 |
| 20260905022503 | 64 | 256 | 0.0 | 3.0 | 0.00 | 0.00 | 0.00 | 45 | 1031.4 |
| 20260905021959 | 64 | 265 | 2.0 | 2.0 | 0.00 | 0.00 | 0.00 | 44 | 1031.5 |
| 20260905021458 | 63 | 256 | 1.0 | 1.0 | 0.00 | 0.00 | 0.00 | 45 | 1031.6 |
| 20260905020953 | 63 | 256 | 0.0 | 0.0 | 0.00 | 0.00 | 0.00 | 47 | 1031.5 |
| 20260905020453 | 63 | 252 | 0.0 | 1.0 | 0.00 | 0.00 | 0.00 | 48 | 1031.1 |
| 20260905015948 | 62 | 287 | 1.0 | 1.0 | 0.00 | 0.00 | 0.00 | 46 | 1031.6 |
| 20260905015446 | 62 | 240 | 1.0 | 1.0 | 0.00 | 0.00 | 0.00 | 47 | 1031.6 |
| 20260905014945 | 62 | 230 | 2.0 | 2.0 | 0.00 | 0.00 | 0.00 | 48 | 1031.5 |
| 20260905014441 | 62 | 240 | 1.0 | 2.0 | 0.00 | 0.00 | 0.00 | 47 | 1031.4 |
| 20260905013936 | 62 | 238 | 1.0 | 3.0 | 0.00 | 0.00 | 0.00 | 49 | 1031.2 |
| 20260905013433 | 62 | 233 | 1.0 | 2.0 | 0.00 | 0.00 | 0.00 | 47 | 1031.1 |
| 20260905012932 | 62 | 241 | 1.0 | 2.0 | 0.00 | 0.00 | 0.00 | 48 | 1031.4 |
| 20260905012428 | 62 | 220 | 2.0 | 3.0 | 0.00 | 0.00 | 0.00 | 47 | 1031.1 |
| 20260905011925 | 63 | 230 | 2.0 | 2.0 | 0.00 | 0.00 | 0.00 | 47 | 1031.2 |
| 20260905011420 | 63 | 232 | 2.0 | 2.0 | 0.00 | 0.00 | 0.00 | 46 | 1031.4 |
| 20260905010915 | 63 | 240 | 1.0 | 2.0 | 0.00 | 0.00 | 0.00 | 44 | 1031.4 |
| 20260905010411 | 63 | 250 | 0.0 | 1.0 | 0.00 | 0.00 | 0.00 | 43 | 1031.4 |
| 20260905005906 | 64 | 224 | 2.0 | 2.0 | 0.00 | 0.00 | 0.00 | 43 | 1031.4 |
| 20260905005402 | 64 | 242 | 1.0 | 1.0 | 0.00 | 0.00 | 0.00 | 44 | 1031.2 |
| 20260905004857 | 64 | 233 | 1.0 | 2.0 | 0.00 | 0.00 | 0.00 | 42 | 1031.5 |
| 20260905004352 | 65 | 216 | 2.0 | 3.0 | 0.00 | 0.00 | 0.00 | 41 | 1031.4 |
| 20260905003847 | 65 | 229 | 2.0 | 2.0 | 0.00 | 0.00 | 0.00 | 41 | 1031.4 |
| 20260905003343 | 66 | 240 | 1.0 | 1.0 | 0.00 | 0.00 | 0.00 | 41 | 1031.4 |
| 20260905002838 | 68 | 221 | 2.0 | 2.0 | 0.00 | 0.00 | 0.00 | 39 | 1031.4 |
| 20260905002337 | 69 | 249 | 0.0 | 1.0 | 0.00 | 0.00 | 0.00 | 37 | 1031.2 |
| 20260905001832 | 69 | 280 | 1.0 | 2.0 | 0.00 | 0.00 | 0.00 | 34 | 1031.2 |
| 20260905001327 | 71 | 269 | 1.0 | 2.0 | 0.00 | 0.00 | 0.00 | 34 | 1031.4 |
| 20260905000823 | 70 | 252 | 0.0 | 0.0 | 0.00 | 0.00 | 0.00 | 37 | 1031.5 |
| 20260905000318 | 70 | 270 | 1.0 | 2.0 | 0.00 | 0.00 | 0.00 | 34 | 1031.2 |
| 20260904235812 | 70 | 253 | 0.0 | 1.0 | 0.00 | 0.00 | 0.00 | 34 | 1031.1 |
| 20260904235306 | 69 | 231 | 1.0 | 1.0 | 0.00 | 0.00 | 0.00 | 35 | 1031.2 |
| 20260904234756 | 70 | 249 | 0.0 | 2.0 | 0.00 | 0.00 | 0.00 | 34 | 1031.2 |
| 20260904234246 | 70 | 276 | 0.0 | 1.0 | 0.00 | 0.00 | 0.00 | 34 | 1031.2 |
| 20260904233742 | 70 | 257 | 1.0 | 1.0 | 0.00 | 0.00 | 0.00 | 34 | 1031.2 |
| 20260904233237 | 70 | 278 | 1.0 | 4.0 | 0.00 | 0.00 | 0.00 | 34 | 1030.8 |
| 20260904232734 | 70 | 274 | 0.0 | 3.0 | 0.00 | 0.00 | 0.00 | 33 | 1031.0 |
| 20260904232229 | 70 | 266 | 0.0 | 2.0 | 0.00 | 0.00 | 0.00 | 33 | 1031.0 |
| 20260904231725 | 71 | 335 | 2.0 | 6.0 | 0.00 | 0.00 | 0.00 | 32 | 1031.0 |
| 20260904231220 | 70 | 271 | 1.0 | 1.0 | 0.00 | 0.00 | 0.00 | 34 | 1031.0 |
| 20260904230715 | 70 | 273 | 2.0 | 2.0 | 0.00 | 0.00 | 0.00 | 33 | 1031.0 |
| 20260904230209 | 71 | 358 | 3.0 | 3.0 | 0.00 | 0.00 | 0.00 | 33 | 1031.1 |
| 20260904225709 | 71 | 288 | 1.0 | 3.0 | 0.00 | 0.00 | 0.00 | 32 | 1031.1 |
| 20260904225203 | 71 | 270 | 0.0 | 1.0 | 0.00 | 0.00 | 0.00 | 33 | 1031.0 |
| 20260904224702 | 71 | 319 | 0.0 | 2.0 | 0.00 | 0.00 | 0.00 | 34 | 1031.1 |
| 20260904224157 | 71 | 263 | 0.0 | 2.0 | 0.00 | 0.00 | 0.00 | 32 | 1031.2 |
| 20260904223656 | 71 | 270 | 0.0 | 3.0 | 0.00 | 0.00 | 0.00 | 32 | 1031.0 |
| 20260904223151 | 71 | 262 | 2.0 | 9.0 | 0.00 | 0.00 | 0.00 | 32 | 1030.8 |
| 20260904222647 | 75 | 32 | 6.0 | 8.0 | 0.00 | 0.00 | 0.00 | 30 | 1031.0 |
| 20260904222143 | 73 | 253 | 3.0 | 6.0 | 0.00 | 0.00 | 0.00 | 31 | 1030.8 |
| 20260904221642 | 72 | 257 | 0.0 | 2.0 | 0.00 | 0.00 | 0.00 | 32 | 1031.1 |
| 20260904221137 | 72 | 346 | 2.0 | 6.0 | 0.00 | 0.00 | 0.00 | 33 | 1031.0 |
| 20260904220632 | 72 | 273 | 0.0 | 3.0 | 0.00 | 0.00 | 0.00 | 33 | 1031.1 |
| 20260904220127 | 72 | 121 | 5.0 | 6.0 | 0.00 | 0.00 | 0.00 | 31 | 1030.8 |
| 20260904215627 | 72 | 259 | 3.0 | 3.0 | 0.00 | 0.00 | 0.00 | 31 | 1030.8 |
| 20260904215123 | 73 | 300 | 1.0 | 3.0 | 0.00 | 0.00 | 0.00 | 32 | 1031.0 |
| 20260904214623 | 73 | 298 | 2.0 | 6.0 | 0.00 | 0.00 | 0.00 | 30 | 1030.7 |
| 20260904214120 | 73 | 262 | 2.0 | 6.0 | 0.00 | 0.00 | 0.00 | 30 | 1030.8 |
| 20260904213617 | 73 | 222 | 0.0 | 6.0 | 0.00 | 0.00 | 0.00 | 31 | 1031.0 |
| 20260904213114 | 71 | 241 | 1.0 | 8.0 | 0.00 | 0.00 | 0.00 | 33 | 1030.8 |
| 20260904212613 | 71 | 325 | 2.0 | 6.0 | 0.00 | 0.00 | 0.00 | 32 | 1031.1 |
| 20260904212108 | 72 | 193 | 3.0 | 7.0 | 0.00 | 0.00 | 0.00 | 31 | 1031.2 |
| 20260904211608 | 73 | 36 | 4.0 | 6.0 | 0.00 | 0.00 | 0.00 | 31 | 1031.2 |
| 20260904211104 | 75 | 16 | 3.0 | 4.0 | 0.00 | 0.00 | 0.00 | 29 | 1030.8 |
| 20260904210603 | 76 | 275 | 1.0 | 13.0 | 0.00 | 0.00 | 0.00 | 29 | 1031.0 |
| 20260904210059 | 74 | 20 | 7.0 | 11.0 | 0.00 | 0.00 | 0.00 | 30 | 1031.0 |
| 20260904205554 | 75 | 320 | 3.0 | 8.0 | 0.00 | 0.00 | 0.00 | 31 | 1031.1 |
| 20260904205050 | 74 | 336 | 6.0 | 8.0 | 0.00 | 0.00 | 0.00 | 31 | 1031.4 |
| 20260904204546 | 74 | 17 | 2.0 | 4.0 | 0.00 | 0.00 | 0.00 | 30 | 1031.0 |
| 20260904204042 | 77 | 325 | 4.0 | 6.0 | 0.00 | 0.00 | 0.00 | 29 | 1031.2 |
| 20260904203538 | 73 | 19 | 0.0 | 6.0 | 0.00 | 0.00 | 0.00 | 31 | 1031.1 |
| 20260904203034 | 75 | 107 | 4.0 | 7.0 | 0.00 | 0.00 | 0.00 | 29 | 1031.2 |
| 20260904202530 | 74 | 338 | 6.0 | 13.0 | 0.00 | 0.00 | 0.00 | 30 | 1031.4 |
| 20260904202026 | 73 | 332 | 3.0 | 8.0 | 0.00 | 0.00 | 0.00 | 29 | 1031.4 |